Date String (YYYY-MM-DD hh:mm:ss) UTC,Instrument flags,Ambient pressure (hPa),Sample flow (lpm),Bypass flow (lpm),Sample temperature (°C),Ambient temperature (°C),ASC tube jacket temperature (°C),LED temperature (°C),Box temperature (°C),Sample RH (%),Span deviation,Mass concentration (μg/m³),Mass concentration (μg/m³),Mass concentration (μg/m³)
DateTimeUTC,F1_M11,P_M11,Q1_M11,Q2_M11,T1_M11,T2_M11,T3_M11,T4_M11,T5_M11,U1_M11,ZSPAN_M11,X2_M11,X0_M11,X1_M11
2022-01-17 20:00:00,,0821.2,5.01,0.00,26.0,25.2,00.0,34.9,27.8,06.7,0000.0,0002.54,0004.09,0002.10
2022-01-17 20:01:00,,0821.2,4.99,0.00,26.0,25.2,00.0,34.9,27.8,06.8,0000.0,0002.41,0003.62,0001.99
2022-01-17 20:02:00,,0821.1,5.01,0.00,26.0,25.2,00.0,34.9,27.8,07.2,0000.0,0002.32,0003.50,0001.90
2022-01-17 20:03:00,,0821.1,4.98,0.00,26.0,25.2,00.0,34.9,27.8,07.5,0000.0,0002.20,0003.29,0001.82
2022-01-17 20:04:00,,0821.1,5.01,0.00,26.0,25.2,00.0,34.9,27.8,07.3,0000.0,0002.12,0003.17,0001.78
2022-01-17 20:05:00,,0821.1,4.98,0.00,26.0,25.2,00.0,34.9,27.9,07.5,0000.0,0002.10,0003.08,0001.75
2022-01-17 20:06:00,,0821.0,5.01,0.00,26.0,25.3,00.0,34.9,27.9,07.7,0000.0,0002.15,0003.29,0001.75
2022-01-17 20:07:00,,0821.0,4.98,0.00,26.0,25.3,00.0,35.0,27.9,07.7,0000.0,0002.19,0003.40,0001.77
2022-01-17 20:08:00,,0821.0,5.01,0.00,26.0,25.3,00.0,35.0,27.9,07.6,0000.0,0002.19,0003.48,0001.79
2022-01-17 20:09:00,,0821.1,4.99,0.00,26.0,25.3,00.0,35.0,27.9,07.6,0000.0,0002.21,0003.42,0001.82
2022-01-17 20:10:00,,0821.1,5.01,0.00,26.1,25.3,00.0,35.0,27.9,07.8,0000.0,0002.26,0003.44,0001.88
2022-01-17 20:11:00,,0821.2,4.99,0.00,26.1,25.3,00.0,35.0,27.9,07.8,0000.0,0002.35,0003.58,0001.98
2022-01-17 20:12:00,,0821.1,5.02,0.00,26.1,25.3,00.0,35.0,27.9,07.7,0000.0,0002.50,0003.82,0002.10
2022-01-17 20:13:00,,0821.1,5.00,0.00,26.1,25.3,00.0,35.0,27.9,07.7,0000.0,0002.57,0003.97,0002.17
2022-01-17 20:14:00,,0821.2,5.01,0.00,26.1,25.3,00.0,35.0,27.9,07.8,0000.0,0002.70,0004.79,0002.27
2022-01-17 20:15:00,,0821.1,4.99,0.00,26.1,25.3,00.0,35.0,27.9,07.4,0000.0,0002.83,0006.19,0002.37
2022-01-17 20:16:00,,0821.2,5.01,0.00,26.1,25.3,00.0,35.0,27.9,07.6,0000.0,0002.89,0006.14,0002.48
2022-01-17 20:17:00,,0821.1,4.99,0.00,26.1,25.3,00.0,35.0,27.9,07.6,0000.0,0003.00,0006.27,0002.59
2022-01-17 20:18:00,,0821.1,5.02,0.00,26.1,25.3,00.0,35.0,27.9,07.9,0000.0,0003.12,0007.41,0002.70
2022-01-17 20:19:00,,0821.1,4.99,0.00,26.1,25.3,00.0,35.0,27.9,07.9,0000.0,0003.18,0007.62,0002.82
2022-01-17 20:20:00,,0821.1,4.99,0.00,26.1,25.3,00.0,35.0,27.9,07.6,0000.0,0003.26,0007.77,0002.94
2022-01-17 20:21:00,,0821.0,5.00,0.00,26.1,25.3,00.0,35.0,28.0,07.5,0000.0,0003.32,0007.96,0003.04
2022-01-17 20:22:00,,0821.0,5.01,0.00,26.1,25.3,00.0,35.1,28.0,07.5,0000.0,0003.35,0008.00,0003.08
2022-01-17 20:23:00,,0821.0,4.99,0.00,26.1,25.3,00.0,35.1,27.9,07.9,0000.0,0003.37,0008.35,0003.11
2022-01-17 20:24:00,,0821.1,5.00,0.00,26.1,25.3,00.0,35.1,27.9,07.6,0000.0,0003.40,0009.01,0003.13
2022-01-17 20:25:00,,0821.1,5.00,0.00,26.1,25.3,00.0,35.1,27.9,07.4,0000.0,0003.40,0008.98,0003.14
2022-01-17 20:26:00,,0821.2,5.00,0.00,26.1,25.4,00.0,35.1,27.9,07.3,0000.0,0003.40,0009.43,0003.15
2022-01-17 20:27:00,,0821.1,5.01,0.00,26.1,25.4,00.0,35.1,28.0,07.3,0000.0,0003.42,0009.69,0003.14
2022-01-17 20:28:00,,0821.1,4.98,0.00,26.1,25.4,00.0,35.1,28.0,07.3,0000.0,0003.38,0009.55,0003.13
2022-01-17 20:29:00,,0821.1,5.01,0.00,26.2,25.4,00.0,35.1,28.0,07.3,0000.0,0003.38,0008.89,0003.13
2022-01-17 20:30:00,,0821.0,4.99,0.00,26.2,25.4,00.0,35.1,28.0,07.3,0000.0,0003.41,0008.86,0003.12
2022-01-17 20:31:00,,0821.0,5.01,0.00,26.2,25.4,00.0,35.1,28.0,07.3,0000.0,0003.41,0008.84,0003.11
2022-01-17 20:32:00,,0821.0,5.00,0.00,26.2,25.4,00.0,35.1,28.0,07.3,0000.0,0003.40,0008.74,0003.10
2022-01-17 20:33:00,,0821.1,5.01,0.00,26.2,25.4,00.0,35.1,28.0,07.3,0000.0,0003.41,0009.18,0003.11
2022-01-17 20:34:00,,0821.0,4.99,0.00,26.2,25.4,00.0,35.1,28.0,07.3,0000.0,0003.41,0008.98,0003.10
2022-01-17 20:35:00,,0821.0,5.00,0.00,26.2,25.4,00.0,35.1,28.0,07.3,0000.0,0003.43,0008.41,0003.10
2022-01-17 20:36:00,,0821.0,5.00,0.00,26.2,25.4,00.0,35.1,28.0,07.5,0000.0,0003.45,0008.07,0003.10
2022-01-17 20:37:00,,0821.0,5.00,0.00,26.2,25.4,00.0,35.1,28.0,07.6,0000.0,0003.45,0006.83,0003.10
2022-01-17 20:38:00,,0821.0,5.01,0.00,26.2,25.4,00.0,35.1,28.0,07.5,0000.0,0003.46,0006.57,0003.09
2022-01-17 20:39:00,,0821.0,4.99,0.00,26.2,25.4,00.0,35.1,28.0,07.6,0000.0,0003.47,0006.61,0003.08
2022-01-17 20:40:00,,0821.0,5.01,0.00,26.2,25.4,00.0,35.1,28.0,07.5,0000.0,0003.43,0006.50,0003.04
2022-01-17 20:41:00,,0821.0,5.00,0.00,26.2,25.4,00.0,35.2,28.0,07.5,0000.0,0003.38,0006.31,0002.99
2022-01-17 20:42:00,,0821.0,5.01,0.00,26.2,25.5,00.0,35.2,28.1,07.5,0000.0,0003.36,0006.23,0002.95
2022-01-17 20:43:00,,0821.0,4.99,0.00,26.2,25.5,00.0,35.2,28.1,07.7,0000.0,0003.38,0006.59,0002.93
2022-01-17 20:44:00,,0821.0,5.01,0.00,26.3,25.5,00.0,35.2,28.1,07.6,0000.0,0003.37,0005.83,0002.90
2022-01-17 20:45:00,,0821.0,4.99,0.00,26.3,25.5,00.0,35.2,28.1,07.6,0000.0,0003.39,0005.82,0002.88
2022-01-17 20:46:00,,0821.0,5.00,0.00,26.3,25.5,00.0,35.2,28.1,07.3,0000.0,0003.36,0005.74,0002.83
2022-01-17 20:47:00,,0821.0,5.00,0.00,26.3,25.5,00.0,35.2,28.1,07.5,0000.0,0003.34,0005.75,0002.78
2022-01-17 20:48:00,,0821.0,5.00,0.00,26.3,25.5,00.0,35.2,28.1,07.3,0000.0,0003.34,0006.25,0002.73
2022-01-17 20:49:00,,0821.0,5.00,0.00,26.3,25.5,00.0,35.2,28.1,07.1,0000.0,0003.33,0006.34,0002.69
2022-01-17 20:50:00,,0820.9,4.98,0.00,26.3,25.5,00.0,35.2,28.1,07.1,0000.0,0003.34,0006.46,0002.67
2022-01-17 20:51:00,,0821.0,4.99,0.00,26.3,25.5,00.0,35.2,28.1,07.3,0000.0,0003.34,0006.79,0002.65
2022-01-17 20:52:00,,0821.0,5.01,0.00,26.3,25.5,00.0,35.2,28.1,07.4,0000.0,0003.35,0007.90,0002.66
2022-01-17 20:53:00,,0821.0,4.99,0.00,26.3,25.5,00.0,35.2,28.1,07.4,0000.0,0003.33,0007.88,0002.64
2022-01-17 20:54:00,,0821.0,5.01,0.00,26.3,25.5,00.0,35.2,28.1,07.5,0000.0,0003.30,0007.69,0002.63
2022-01-17 20:55:00,,0821.1,5.00,0.00,26.3,25.5,00.0,35.2,28.1,07.6,0000.0,0003.29,0008.44,0002.61
2022-01-17 20:56:00,,0821.0,4.99,0.00,26.3,25.5,00.0,35.3,28.1,07.5,0000.0,0003.27,0008.64,0002.60
2022-01-17 20:57:00,,0821.0,5.02,0.00,26.3,25.5,00.0,35.3,28.1,07.3,0000.0,0003.27,0008.61,0002.60
2022-01-17 20:58:00,,0821.0,4.99,0.00,26.3,25.5,00.0,35.3,28.1,07.4,0000.0,0003.29,0008.71,0002.61
2022-01-17 20:59:00,,0821.0,5.01,0.00,26.3,25.5,00.0,35.3,28.2,07.4,0000.0,0003.31,0008.57,0002.61
